Regional Weather Roundup
Issued by NWS

Home | Current Version | Previous Version | Text Only | Print | Product List | Glossary On
Versions: 1 2 3 4 5 6 7 8 9 10 11 12 13 14 15 16 17 18 19 20 21 22 23 24 25 26 27
000
ASPQ40 PGUM 190412
RWRPQ
WEATHER ROUNDUP FOR THE MARIANAS AND MICRONESIA
NATIONAL WEATHER SERVICE TIYAN GU
200 PM CHST THU JAN 19 2017

GUZ001>004-190500-
MARIANA ISLANDS-

CITY           SKY/WX    TMP DP  RH WIND       PRES   REMARKS
GUAM AIRPORT   CLOUDY    82  75  78 NE22      29.93F
ANDERSEN AFB   PTSUNNY   79  73  83 NE22G29   29.94F
ROTA AIRPORT   PTSUNNY   81  72  74 NE18G29   29.95F
TINIAN AP      PTSUNNY   82  70  65 NE25      29.95F
SAIPAN AP      CLOUDY    81  70  69 NE23G31   29.95F

$$

PMZ161-190500-
REPUBLIC OF PALAU-

CITY           SKY/WX    TMP DP  RH WIND       PRES   REMARKS
KOROR AP       CLOUDY    86  81  84 E18G28    29.83F HX 102
KOROR WSO      CLOUDY    90  77  66 E12       29.84F HX 102

$$

PMZ171>174-190500-
FEDERATED STATES OF MICRONESIA-

CITY           SKY/WX    TMP DP  RH WIND       PRES   REMARKS
YAP AIRPORT    LGT RAIN  82  79  89 E9        29.84F HX  93
CHUUK AP       MOSUNNY   86  81  84 NE12      29.79F HX 102
POHNPEI AP     PTSUNNY   88  77  70 E14       29.80F HX 100
POHNPEI WSO    MOSUNNY   86  72  62 E6        29.83F HX  92
KOSRAE AP      NOT AVBL

$$

PMZ181-190500-
REPUBLIC OF THE MARSHALL ISLANDS-

CITY           SKY/WX    TMP DP  RH WIND       PRES   REMARKS
KWAJALEIN AP   SUNNY     84  72  65 NE18      29.80S
MAJURO AP      NOT AVBL
MAJURO WSO     LGT RAIN  81  77  89 NE10      29.75S

$$





USA.gov is the U.S. government's official web portal to all federal, state and local government web resources and services.